{"data":{"norad_id":57866,"epoch":"2026-05-25T05:07:09.086304Z","epoch_age_seconds":57378,"freshness":"FRESH","line1":"1 57866U 23144C   26145.21329961  .00000696  00000+0  34818-4 0  9995","line2":"2 57866  42.9986 212.7858 0001413 278.0680  82.0011 15.27577459149306","mean_motion":15.27577459,"eccentricity":0.0001413,"inclination_deg":42.9986,"raan_deg":212.7858,"arg_perigee_deg":278.068,"mean_anomaly_deg":82.0011,"bstar":3.4818e-5,"rev_number":14930,"period_min":94.266905518668,"perigee_km":482.08721804784,"apogee_km":484.0261913888,"semimajor_km":6861.1937047183,"source":"CELESTRAK","updated_at":"2026-05-25T13:38:18.445612Z"}}